STARLINK-32046, 60198

Orbit data source: Space-Track

STARLINK-32046, 60198 is a payload satellite owned by SpaceX/Seattle (US) in LEO that was launched on Wed, 03 Jul 2024 UTC via an FALCON 9 launch vehicle from the Air Force Eastern Test Range (AFETR). Payload-class satellites include a variety of spacecraft equipped with specific instruments for various scientific and technological missions. These include communications satellites like Starlink; space stations such as the ISS; scientific satellites like the Hubble; Earth observation satellites from companies like Planet Labs, Umbra, and HawkEye 360; GPS; miniature CubeSats for education and research; and military/defense satellites.

Loading next visibility...
Identifier
60198, 2024-124R
Orbit
LEO
Country
Flag of USUS
Related business
Manufacturer
SpaceX/Seattle
Mission
Operational Commercial Communications
Bus & Motor
STARLINK V2M, Unknown motor
Mass
730 kg wet, ~700 kg dry
Launch date (UTC)
2024-07-03 (1 year ago)
Launch vehicle
FALCON 9
Launch site
Air Force Eastern Test Range (AFETR)
Object type
Payload
Rocket body
Debris
Shape & HBR
Box + 2 Pan, 17.7 m
Radar Cross Section
33.884 m², Large (>1 m²)

Expand to show TLE details & history
Last TLE update: 16 hours ago

TLE from 16 hours ago
0 STARLINK-32046
1 60198U 24124R   25340.54105182  .00015271  00000-0  52645-3 0  9998
2 60198  53.1613  35.2023 0000891  95.0884 265.0219 15.30211923 81261
Epoch: 2025-12-06T12:59Z
TLE epoch observation values (Epoch: 2025-12-06T12:59:06.877Z)
Latitude
0.00003°
Longitude
124.85636°
Altitude
476.132 km
Speed
7.629 km/s
True Right ascension
02h 20m 48s
True Declination
0° 00' 00"
Sunlit
Object was in full shadow at epoch
Visualization orbit readout
Latitude
Unknown
Longitude
Unknown
Altitude
Unknown
Speed
Unknown
Apparent Right ascension
Unknown
Apparent Declination
Unknown
Sunlit
N/A
Visualization observer readout
Local Sidereal Time
03:15:05
Azimuth
Unknown
Elevation
Unknown
Doppler factor
Unknown
Orbital elements
Apogee altitude
476.046 km
Perigee altitude
474.825 km
Semi-major axis
6,853.573 km
Eccentricity
0.00009
Inclination
53.1613°
RAAN
35.2023°
Arg. of periapsis
95.0884°
True anomaly
265.01173°
Mean anomaly
265.0219°
Eccentric anomaly
265.01681°
Mean motion
3.82532 °/min
Orbital period
94.11 mins
BSTAR
0.00052645
Loading maneuver chart data...
Computing Atmospheric mass density...
Loading historical data...
Loading historical data...
Loading historical data...
Loading historical data...
Loading historical data...
Loading historical data...
Loading historical data...

Documentation

Showing up to 5 results
|